GALAXY 28 (G-28)

Last updated on Sun Dec 07 2025 00:02:46 GMT+0000 (Coordinated Universal Time)

1 28702U 05022A 25340.45968139 -.00000181 00000+0 00000+0 0 9996 2 28702 2.8026 81.3552 0002645 174.6698 256.2716 1.00271723 50042
UTC large
Height (km)
Speed (km/s)
/
Latitude / Longitude
Inclination (degrees)
Orbital Period (minutes)
Azimuth
Elevation
Range (km)
Doppler Factor

Next 0 passes for location: London (51.5072 / 0.1276)

Sorry there are no passes over London.